TimeCDT,TemperatureF,Dew PointF,Humidity,Sea Level PressureIn,VisibilityMPH,Wind Direction,Wind SpeedMPH,Gust SpeedMPH,PrecipitationIn,Events,Conditions,WindDirDegrees,DateUTC
12:15 AM,55.9,52.2,87,29.86,10.0,ENE,3.5,-,N/A,,Clear,70,2013-09-23 05:15:00
12:35 AM,55.4,53.4,93,29.86,10.0,Calm,Calm,-,N/A,,Clear,0,2013-09-23 05:35:00
12:55 AM,55.2,54.0,96,29.86,10.0,Calm,Calm,-,N/A,,Clear,0,2013-09-23 05:55:00
1:15 AM,55.8,54.5,96,29.86,10.0,Calm,Calm,-,N/A,,Clear,0,2013-09-23 06:15:00
1:35 AM,54.9,52.3,91,29.86,10.0,Calm,Calm,-,N/A,,Clear,0,2013-09-23 06:35:00
1:55 AM,53.8,52.3,95,29.86,10.0,Calm,Calm,-,N/A,,Clear,0,2013-09-23 06:55:00
2:15 AM,54.1,53.2,97,29.86,10.0,Calm,Calm,-,N/A,,Clear,0,2013-09-23 07:15:00
2:35 AM,53.8,53.6,99,29.85,10.0,Calm,Calm,-,N/A,,Clear,0,2013-09-23 07:35:00
2:55 AM,53.6,53.6,100,29.85,10.0,Calm,Calm,-,N/A,,Clear,0,2013-09-23 07:55:00
3:15 AM,52.9,52.5,99,29.85,10.0,Calm,Calm,-,N/A,,Clear,0,2013-09-23 08:15:00
3:35 AM,53.4,52.7,97,29.84,10.0,Calm,Calm,-,N/A,,Clear,0,2013-09-23 08:35:00
3:55 AM,53.6,53.4,99,29.84,10.0,Calm,Calm,-,N/A,,Clear,0,2013-09-23 08:55:00
4:15 AM,52.7,52.5,99,29.83,10.0,ESE,3.5,-,N/A,,Clear,120,2013-09-23 09:15:00
4:35 AM,54.1,52.3,94,29.83,10.0,Calm,Calm,-,N/A,,Clear,0,2013-09-23 09:35:00
4:55 AM,54.9,53.1,94,29.84,10.0,Calm,Calm,-,N/A,,Clear,0,2013-09-23 09:55:00
5:15 AM,54.9,53.6,96,29.84,10.0,Calm,Calm,-,N/A,,Clear,0,2013-09-23 10:15:00
5:35 AM,53.6,52.2,95,29.84,10.0,East,5.8,-,N/A,,Clear,100,2013-09-23 10:35:00
5:55 AM,55.0,52.9,92,29.85,10.0,Calm,Calm,-,N/A,,Clear,0,2013-09-23 10:55:00
6:15 AM,54.9,52.5,92,29.86,10.0,SE,3.5,-,N/A,,Clear,130,2013-09-23 11:15:00
6:35 AM,53.4,52.3,96,29.86,10.0,Calm,Calm,-,N/A,,Clear,0,2013-09-23 11:35:00
7:55 AM,53.6,51.8,94,29.87,10.0,Calm,Calm,-,N/A,,Clear,0,2013-09-23 12:55:00
8:55 AM,62.6,57.2,82,29.87,10.0,SE,3.5,-,N/A,,Clear,140,2013-09-23 13:55:00
11:55 AM,77.0,53.6,44,29.87,10.0,SE,8.1,-,N/A,,Clear,140,2013-09-23 16:55:00
12:55 PM,78.8,53.6,42,29.85,10.0,South,11.5,-,N/A,,Clear,180,2013-09-23 17:55:00
1:55 PM,82.4,66.2,58,29.81,10.0,SE,8.1,-,N/A,,Clear,140,2013-09-23 18:55:00
2:55 PM,84.2,53.6,35,29.78,10.0,SE,9.2,16.1,N/A,,Clear,140,2013-09-23 19:55:00
5:55 PM,84.2,51.8,33,29.76,10.0,SSE,9.2,-,N/A,,Clear,160,2013-09-23 22:55:00
11:35 PM,66.2,55.0,67,29.85,10.0,Calm,Calm,-,N/A,,Clear,0,2013-09-24 04:35:00
11:55 PM,63.5,54.7,73,29.86,10.0,Calm,Calm,-,N/A,,Clear,0,2013-09-24 04:55:00